QPF
0.02 0.02 0.02 0.02 0.02 0.02 0.02 0.03 0.04 0.03 0.03 0.03 0.04 0.04 0.03 0.04 0.03 0.03 0.03 0.03 0.04 0.05 0.06 0.07 0.07 0.10 0.11 0.09 0.07 0.08 0.07 0.07 0.06 0.05 0.04 0.04 0.04 0.05 0.04 0.04 0.04 0.04 0.04
0.02 0.03 0.03 0.02 0.02 0.03 0.04 0.04 0.06 0.06 0.05 0.04 0.04 0.04 0.05 0.06 0.04 0.04 0.05 0.05 0.04 0.04 0.06 0.06 0.06 0.07 0.08 0.08 0.09 0.10 0.08 0.07 0.07 0.06 0.05 0.05 0.04 0.04 0.03 0.03 0.03 0.03 0.03
0.03 0.03 0.03 0.03 0.02 0.03 0.04 0.05 0.05 0.06 0.06 0.05 0.04 0.05 0.05 0.05 0.06 0.08 0.08 0.08 0.06 0.06 0.07 0.07 0.06 0.07 0.08 0.08 0.09 0.10 0.09 0.07 0.07 0.07 0.07 0.07 0.06 0.04 0.03 0.02 0.03 0.03 0.03
0.04 0.05 0.05 0.03 0.02 0.03 0.03 0.04 0.04 0.04 0.04 0.04 0.06 0.06 0.06 0.07 0.09 0.09 0.08 0.08 0.05 0.05 0.06 0.07 0.07 0.08 0.09 0.10 0.12 0.13 0.10 0.08 0.07 0.07 0.07 0.08 0.07 0.06 0.05 0.04 0.03 0.04 0.04
0.06 0.05 0.05 0.04 0.02 0.02 0.04 0.03 0.03 0.03 0.02 0.02 0.03 0.03 0.04 0.04 0.05 0.05 0.06 0.06 0.07 0.06 0.05 0.07 0.09 0.09 0.09 0.11 0.13 0.13 0.11 0.09 0.08 0.07 0.07 0.07 0.06 0.05 0.05 0.04 0.04 0.04 0.04
0.04 0.04 0.05 0.03 0.02 0.02 0.02 0.02 0.03 0.02 0.02 0.02 0.02 0.02 0.02 0.02 0.03 0.04 0.04 0.04 0.05 0.06 0.05 0.06 0.07 0.07 0.09 0.10 0.10 0.11 0.10 0.09 0.08 0.07 0.07 0.07 0.06 0.05 0.04 0.04 0.04 0.04 0.04
0.03 0.04 0.05 0.04 0.02 0.02 0.01 0.02 0.03 0.03 0.03 0.04 0.04 0.03 0.02 0.01 0.02 0.02 0.02 0.02 0.02 0.04 0.06 0.06 0.07 0.07 0.07 0.07 0.08 0.07 0.07 0.08 0.08 0.07 0.06 0.05 0.05 0.05 0.04 0.04 0.04 0.04 0.05
0.03 0.04 0.05 0.04 0.03 0.03 0.02 0.02 0.02 0.03 0.04 0.05 0.05 0.03 0.03 0.02 0.02 0.02 0.03 0.03 0.03 0.02 0.03 0.05 0.06 0.06 0.06 0.07 0.06 0.06 0.06 0.07 0.07 0.06 0.04 0.03 0.04 0.04 0.04 0.05 0.05 0.04 0.04
0.04 0.04 0.04 0.04 0.04 0.03 0.02 0.02 0.02 0.02 0.03 0.05 0.07 0.07 0.05 0.05 0.05 0.05 0.06 0.04 0.02 0.01 0.02 0.02 0.03 0.04 0.06 0.07 0.08 0.07 0.06 0.07 0.07 0.05 0.04 0.03 0.03 0.03 0.03 0.03 0.04 0.05 0.04
0.04 0.03 0.04 0.04 0.04 0.03 0.03 0.02 0.02 0.02 0.02 0.04 0.07 0.09 0.10 0.09 0.07 0.06 0.06 0.05 0.03 0.02 0.02 0.02 0.02 0.04 0.05 0.05 0.08 0.08 0.07 0.06 0.07 0.07 0.08 0.07 0.05 0.04 0.03 0.02 0.03 0.04 0.03
0.03 0.02 0.03 0.03 0.04 0.03 0.03 0.02 0.02 0.02 0.02 0.02 0.05 0.07 0.07 0.06 0.07 0.07 0.05 0.05 0.04 0.04 0.03 0.03 0.03 0.04 0.04 0.04 0.06 0.08 0.09 0.08 0.09 0.10 0.11 0.12 0.10 0.08 0.05 0.03 0.03 0.04 0.04
0.02 0.02 0.02 0.02 0.03 0.03 0.02 0.02 0.02 0.02 0.01 0.02 0.02 0.04 0.04 0.04 0.05 0.06 0.06 0.05 0.03 0.04 0.03 0.02 0.03 0.03 0.03 0.03 0.04 0.05 0.07 0.08 0.09 0.13 0.12 0.10 0.11 0.09 0.08 0.08 0.07 0.06 0.07
0.03 0.02 0.03 0.03 0.03 0.03 0.03 0.03 0.03 0.02 0.02 0.02 0.02 0.03 0.04 0.05 0.05 0.05 0.06 0.05 0.03 0.03 0.02 0.02 0.02 0.01 0.01 0.02 0.02 0.03 0.07 0.08 0.07 0.09 0.09 0.07 0.07 0.06 0.08 0.08 0.08 0.08 0.07
0.03 0.03 0.04 0.03 0.04 0.03 0.03 0.03 0.04 0.03 0.03 0.04 0.05 0.04 0.03 0.04 0.05 0.06 0.07 0.05 0.03 0.02 0.01 0.01 0.01 0.01 0.01 0.02 0.02 0.03 0.03 0.04 0.05 0.06 0.06 0.08 0.08 0.08 0.08 0.07 0.06 0.06 0.06
0.03 0.03 0.03 0.04 0.04 0.04 0.02 0.02 0.03 0.04 0.04 0.04 0.05 0.06 0.05 0.06 0.05 0.06 0.07 0.07 0.04 0.02 0.01 0.01 0.01 0.01 0.02 0.02 0.04 0.03 0.02 0.03 0.03 0.04 0.05 0.07 0.07 0.06 0.05 0.05 0.06 0.06 0.05
0.03 0.03 0.04 0.04 0.04 0.03 0.03 0.03 0.04 0.04 0.04 0.04 0.05 0.05 0.06 0.07 0.07 0.06 0.05 0.06 0.05 0.04 0.03 0.04 0.03 0.02 0.01 0.02 0.02 0.02 0.01 0.02 0.02 0.03 0.05 0.06 0.07 0.05 0.05 0.05 0.04 0.04 0.04
0.02 0.02 0.03 0.04 0.03 0.02 0.02 0.02 0.03 0.03 0.03 0.04 0.04 0.04 0.04 0.06 0.10 0.09 0.07 0.05 0.05 0.06 0.06 0.05 0.05 0.04 0.02 0.02 0.01 0.01 0.01 0.01 0.01 0.02 0.04 0.06 0.07 0.07 0.05 0.04 0.04 0.04 0.05
0.03 0.03 0.03 0.03 0.03 0.02 0.02 0.02 0.02 0.03 0.03 0.04 0.04 0.03 0.04 0.05 0.07 0.08 0.06 0.05 0.05 0.06 0.07 0.07 0.07 0.06 0.04 0.03 0.02 0.01 0.01 0.01 0.01 0.02 0.04 0.04 0.05 0.05 0.04 0.04 0.04 0.03 0.05
0.06 0.05 0.04 0.03 0.03 0.03 0.03 0.03 0.02 0.03 0.04 0.04 0.04 0.03 0.03 0.04 0.04 0.06 0.06 0.06 0.08 0.11 0.09 0.08 0.08 0.07 0.06 0.05 0.04 0.02 0.01 0.02 0.02 0.03 0.04 0.05 0.04 0.04 0.04 0.03 0.03 0.03 0.03
0.07 0.05 0.05 0.04 0.04 0.04 0.03 0.03 0.04 0.05 0.04 0.03 0.03 0.03 0.03 0.03 0.04 0.05 0.04 0.04 0.07 0.11 0.12 0.09 0.07 0.07 0.06 0.05 0.04 0.03 0.03 0.03 0.03 0.02 0.04 0.07 0.05 0.04 0.04 0.03 0.03 0.03 0.02
0.06 0.05 0.05 0.04 0.03 0.03 0.02 0.03 0.05 0.07 0.06 0.05 0.03 0.03 0.04 0.04 0.04 0.04 0.04 0.06 0.06 0.08 0.10 0.08 0.06 0.05 0.05 0.03 0.03 0.02 0.03 0.03 0.03 0.03 0.05 0.05 0.04 0.03 0.03 0.04 0.03 0.03 0.03
0.06 0.05 0.04 0.03 0.03 0.02 0.02 0.03 0.04 0.06 0.07 0.06 0.05 0.04 0.04 0.04 0.04 0.04 0.05 0.05 0.05 0.06 0.07 0.07 0.05 0.04 0.03 0.03 0.03 0.02 0.02 0.02 0.03 0.03 0.02 0.02 0.03 0.05 0.04 0.04 0.03 0.02 0.02
0.03 0.02 0.02 0.02 0.02 0.02 0.03 0.03 0.05 0.04 0.04 0.05 0.06 0.06 0.05 0.04 0.04 0.03 0.03 0.03 0.04 0.05 0.05 0.05 0.03 0.03 0.03 0.02 0.02 0.02 0.02 0.01 0.01 0.02 0.02 0.03 0.03 0.04 0.04 0.03 0.03 0.02 0.02
0.02 0.01 0.02 0.03 0.04 0.04 0.04 0.05 0.05 0.04 0.03 0.04 0.06 0.05 0.04 0.03 0.03 0.02 0.02 0.02 0.02 0.02 0.02 0.03 0.02 0.02 0.03 0.03 0.04 0.03 0.02 0.01 0.01 0.01 0.03 0.03 0.03 0.03 0.04 0.04 0.04 0.03 0.03
0.01 0.01 0.02 0.03 0.04 0.05 0.06 0.06 0.06 0.05 0.04 0.04 0.05 0.04 0.03 0.03 0.03 0.04 0.03 0.02 0.01 0.01 0.01 0.02 0.02 0.02 0.03 0.04 0.04 0.04 0.03 0.02 0.02 0.02 0.03 0.03 0.02 0.02 0.03 0.03 0.04 0.04 0.03
0.02 0.03 0.04 0.05 0.06 0.07 0.07 0.07 0.07 0.06 0.05 0.04 0.05 0.04 0.03 0.03 0.03 0.03 0.03 0.02 0.01 0.00 0.01 0.01 0.01 0.01 0.02 0.03 0.03 0.03 0.03 0.04 0.04 0.03 0.03 0.03 0.03 0.03 0.04 0.04 0.04 0.04 0.03
MSLP
1014.68 1014.69 1014.59 1014.41 1014.19 1013.97 1013.77 1013.61 1013.49 1013.39 1013.28 1013.13 1012.94 1012.69 1012.40 1012.10 1011.82 1011.59 1011.43 1011.34 1011.32 1011.35 1011.41 1011.50 1011.59 1011.70 1011.81 1011.95 1012.12 1012.32 1012.56 1012.83 1013.14 1013.47 1013.82 1014.18 1014.54 1014.91 1015.29 1015.65 1016.02 1016.38 1016.73
1014.53 1014.56 1014.49 1014.35 1014.17 1013.98 1013.81 1013.68 1013.57 1013.47 1013.36 1013.20 1012.98 1012.70 1012.38 1012.02 1011.69 1011.40 1011.20 1011.08 1011.06 1011.12 1011.24 1011.39 1011.56 1011.73 1011.88 1012.03 1012.17 1012.32 1012.49 1012.69 1012.92 1013.18 1013.48 1013.81 1014.15 1014.51 1014.88 1015.24 1015.60 1015.95 1016.30
1014.29 1014.34 1014.33 1014.25 1014.14 1014.01 1013.89 1013.79 1013.70 1013.60 1013.48 1013.32 1013.08 1012.78 1012.42 1012.02 1011.64 1011.30 1011.04 1010.88 1010.84 1010.89 1011.03 1011.22 1011.43 1011.63 1011.82 1011.98 1012.11 1012.22 1012.34 1012.47 1012.63 1012.84 1013.08 1013.37 1013.69 1014.04 1014.40 1014.76 1015.12 1015.48 1015.85
1013.94 1014.02 1014.07 1014.07 1014.05 1014.00 1013.94 1013.88 1013.80 1013.71 1013.59 1013.41 1013.16 1012.85 1012.47 1012.06 1011.64 1011.26 1010.95 1010.74 1010.65 1010.66 1010.78 1010.96 1011.17 1011.39 1011.59 1011.75 1011.88 1011.97 1012.06 1012.15 1012.26 1012.42 1012.62 1012.87 1013.17 1013.50 1013.86 1014.23 1014.60 1014.98 1015.37
1013.47 1013.59 1013.71 1013.80 1013.87 1013.90 1013.91 1013.88 1013.82 1013.74 1013.60 1013.42 1013.18 1012.87 1012.50 1012.10 1011.68 1011.28 1010.94 1010.68 1010.52 1010.47 1010.52 1010.65 1010.83 1011.03 1011.22 1011.38 1011.50 1011.59 1011.66 1011.73 1011.82 1011.94 1012.12 1012.34 1012.61 1012.93 1013.28 1013.65 1014.04 1014.44 1014.86
1012.93 1013.08 1013.26 1013.44 1013.60 1013.71 1013.77 1013.77 1013.73 1013.64 1013.51 1013.33 1013.11 1012.83 1012.51 1012.14 1011.76 1011.37 1011.01 1010.71 1010.49 1010.36 1010.33 1010.37 1010.48 1010.63 1010.78 1010.92 1011.04 1011.13 1011.21 1011.28 1011.36 1011.47 1011.62 1011.82 1012.07 1012.36 1012.69 1013.06 1013.45 1013.87 1014.31
1012.38 1012.56 1012.79 1013.04 1013.27 1013.45 1013.55 1013.58 1013.54 1013.45 1013.32 1013.16 1012.97 1012.75 1012.50 1012.21 1011.89 1011.55 1011.21 1010.89 1010.61 1010.39 1010.26 1010.20 1010.20 1010.27 1010.36 1010.47 1010.58 1010.68 1010.77 1010.85 1010.94 1011.05 1011.19 1011.37 1011.58 1011.84 1012.14 1012.49 1012.86 1013.28 1013.72
1011.88 1012.08 1012.36 1012.67 1012.95 1013.17 1013.30 1013.34 1013.31 1013.21 1013.09 1012.95 1012.81 1012.67 1012.51 1012.33 1012.10 1011.83 1011.53 1011.20 1010.88 1010.59 1010.35 1010.17 1010.07 1010.04 1010.06 1010.12 1010.21 1010.31 1010.42 1010.52 1010.63 1010.74 1010.87 1011.02 1011.20 1011.41 1011.66 1011.96 1012.30 1012.68 1013.11
1011.50 1011.72 1012.03 1012.37 1012.69 1012.93 1013.08 1013.12 1013.08 1012.98 1012.87 1012.76 1012.68 1012.63 1012.57 1012.50 1012.38 1012.20 1011.95 1011.65 1011.30 1010.94 1010.61 1010.32 1010.11 1009.97 1009.92 1009.92 1009.98 1010.07 1010.19 1010.31 1010.42 1010.54 1010.66 1010.79 1010.92 1011.08 1011.27 1011.50 1011.78 1012.11 1012.49
1011.24 1011.48 1011.82 1012.18 1012.51 1012.76 1012.90 1012.94 1012.89 1012.79 1012.69 1012.62 1012.59 1012.61 1012.66 1012.70 1012.68 1012.59 1012.41 1012.13 1011.78 1011.38 1010.97 1010.60 1010.28 1010.05 1009.91 1009.86 1009.88 1009.95 1010.06 1010.19 1010.31 1010.43 1010.54 1010.64 1010.73 1010.83 1010.95 1011.11 1011.31 1011.56 1011.88
1011.07 1011.34 1011.70 1012.07 1012.39 1012.63 1012.76 1012.78 1012.72 1012.62 1012.53 1012.49 1012.51 1012.60 1012.73 1012.85 1012.93 1012.92 1012.79 1012.55 1012.21 1011.79 1011.33 1010.89 1010.50 1010.20 1009.99 1009.87 1009.85 1009.89 1009.98 1010.11 1010.23 1010.34 1010.44 1010.52 1010.58 1010.63 1010.69 1010.77 1010.90 1011.07 1011.31
1010.92 1011.23 1011.60 1011.96 1012.26 1012.48 1012.58 1012.58 1012.51 1012.41 1012.33 1012.31 1012.37 1012.51 1012.69 1012.88 1013.02 1013.07 1012.99 1012.79 1012.46 1012.05 1011.58 1011.11 1010.67 1010.32 1010.05 1009.89 1009.82 1009.82 1009.89 1009.99 1010.10 1010.20 1010.29 1010.36 1010.40 1010.42 1010.44 1010.47 1010.53 1010.64 1010.80
1010.72 1011.06 1011.42 1011.76 1012.04 1012.22 1012.29 1012.27 1012.19 1012.09 1012.02 1012.02 1012.10 1012.26 1012.47 1012.69 1012.86 1012.95 1012.91 1012.75 1012.46 1012.07 1011.62 1011.15 1010.71 1010.33 1010.03 1009.83 1009.72 1009.68 1009.71 1009.78 1009.87 1009.96 1010.04 1010.10 1010.14 1010.16 1010.17 1010.18 1010.21 1010.27 1010.37
1010.43 1010.78 1011.12 1011.42 1011.65 1011.79 1011.83 1011.78 1011.69 1011.60 1011.54 1011.55 1011.64 1011.80 1012.02 1012.24 1012.42 1012.53 1012.52 1012.39 1012.15 1011.81 1011.41 1010.98 1010.57 1010.21 1009.90 1009.68 1009.53 1009.45 1009.44 1009.46 1009.52 1009.59 1009.67 1009.74 1009.79 1009.83 1009.85 1009.87 1009.90 1009.94 1010.01
1010.02 1010.36 1010.67 1010.92 1011.09 1011.18 1011.18 1011.11 1011.02 1010.92 1010.88 1010.89 1010.99 1011.14 1011.34 1011.55 1011.73 1011.83 1011.85 1011.76 1011.57 1011.30 1010.98 1010.62 1010.28 1009.95 1009.68 1009.45 1009.27 1009.15 1009.09 1009.06 1009.08 1009.12 1009.18 1009.26 1009.33 1009.41 1009.47 1009.53 1009.58 1009.63 1009.70
1009.56 1009.87 1010.13 1010.31 1010.41 1010.44 1010.40 1010.32 1010.22 1010.13 1010.09 1010.12 1010.21 1010.35 1010.53 1010.71 1010.87 1010.97 1011.00 1010.95 1010.83 1010.64 1010.41 1010.16 1009.90 1009.64 1009.40 1009.19 1009.00 1008.84 1008.72 1008.63 1008.59 1008.60 1008.64 1008.71 1008.81 1008.91 1009.02 1009.13 1009.22 1009.31 1009.39
1009.15 1009.41 1009.59 1009.70 1009.74 1009.71 1009.63 1009.53 1009.43 1009.35 1009.32 1009.35 1009.44 1009.56 1009.72 1009.87 1010.00 1010.09 1010.13 1010.12 1010.06 1009.96 1009.84 1009.69 1009.53 1009.35 1009.17 1008.97 1008.78 1008.58 1008.40 1008.25 1008.14 1008.09 1008.09 1008.14 1008.24 1008.36 1008.51 1008.66 1008.80 1008.93 1009.04
1008.91 1009.10 1009.21 1009.25 1009.22 1009.14 1009.03 1008.91 1008.81 1008.74 1008.72 1008.75 1008.83 1008.94 1009.06 1009.18 1009.28 1009.36 1009.40 1009.42 1009.42 1009.41 1009.37 1009.33 1009.26 1009.16 1009.03 1008.86 1008.66 1008.43 1008.19 1007.97 1007.79 1007.66 1007.59 1007.60 1007.67 1007.79 1007.95 1008.12 1008.29 1008.45 1008.60
1008.94 1009.05 1009.10 1009.07 1008.99 1008.87 1008.73 1008.60 1008.50 1008.43 1008.42 1008.44 1008.51 1008.59 1008.68 1008.77 1008.84 1008.90 1008.94 1008.98 1009.01 1009.05 1009.10 1009.13 1009.14 1009.11 1009.02 1008.87 1008.66 1008.40 1008.11 1007.82 1007.55 1007.33 1007.19 1007.12 1007.13 1007.21 1007.35 1007.51 1007.69 1007.87 1008.04
1009.27 1009.32 1009.31 1009.24 1009.12 1008.97 1008.82 1008.68 1008.58 1008.51 1008.49 1008.51 1008.55 1008.61 1008.66 1008.71 1008.74 1008.77 1008.79 1008.83 1008.88 1008.95 1009.03 1009.11 1009.17 1009.18 1009.12 1008.99 1008.77 1008.48 1008.14 1007.78 1007.43 1007.12 1006.88 1006.72 1006.65 1006.66 1006.73 1006.85 1007.01 1007.18 1007.36
1009.87 1009.88 1009.84 1009.75 1009.61 1009.46 1009.30 1009.16 1009.05 1008.97 1008.94 1008.94 1008.95 1008.98 1008.99 1008.99 1008.98 1008.97 1008.95 1008.96 1009.00 1009.06 1009.15 1009.24 1009.31 1009.34 1009.30 1009.17 1008.94 1008.63 1008.25 1007.83 1007.41 1007.01 1006.68 1006.41 1006.24 1006.15 1006.13 1006.18 1006.28 1006.42 1006.59
1010.67 1010.66 1010.61 1010.52 1010.39 1010.24 1010.08 1009.94 1009.82 1009.74 1009.68 1009.65 1009.63 1009.62 1009.59 1009.54 1009.48 1009.41 1009.35 1009.32 1009.31 1009.34 1009.40 1009.47 1009.52 1009.54 1009.49 1009.36 1009.12 1008.80 1008.40 1007.94 1007.46 1006.99 1006.57 1006.20 1005.92 1005.71 1005.59 1005.53 1005.55 1005.63 1005.77
1011.55 1011.54 1011.50 1011.43 1011.32 1011.18 1011.04 1010.90 1010.77 1010.66 1010.58 1010.52 1010.46 1010.40 1010.33 1010.24 1010.13 1010.01 1009.89 1009.80 1009.73 1009.71 1009.71 1009.73 1009.75 1009.74 1009.67 1009.53 1009.29 1008.96 1008.55 1008.08 1007.57 1007.05 1006.55 1006.10 1005.70 1005.38 1005.14 1004.97 1004.89 1004.88 1004.96
1012.38 1012.39 1012.38 1012.34 1012.26 1012.15 1012.01 1011.87 1011.73 1011.60 1011.48 1011.38 1011.29 1011.19 1011.08 1010.94 1010.79 1010.63 1010.46 1010.31 1010.19 1010.10 1010.04 1010.00 1009.97 1009.92 1009.83 1009.67 1009.44 1009.12 1008.72 1008.25 1007.73 1007.18 1006.64 1006.11 1005.63 1005.20 1004.83 1004.55 1004.35 1004.24 1004.23
1013.09 1013.13 1013.15 1013.14 1013.09 1013.00 1012.87 1012.72 1012.56 1012.41 1012.26 1012.13 1012.00 1011.87 1011.72 1011.56 1011.39 1011.19 1010.99 1010.79 1010.62 1010.47 1010.35 1010.25 1010.17 1010.08 1009.97 1009.81 1009.58 1009.28 1008.90 1008.46 1007.95 1007.40 1006.83 1006.26 1005.70 1005.18 1004.70 1004.30 1003.97 1003.75 1003.63
1013.66 1013.72 1013.77 1013.79 1013.76 1013.68 1013.55 1013.39 1013.21 1013.03 1012.85 1012.68 1012.53 1012.37 1012.21 1012.04 1011.85 1011.64 1011.42 1011.20 1010.99 1010.80 1010.63 1010.49 1010.37 1010.25 1010.12 1009.96 1009.74 1009.47 1009.13 1008.71 1008.23 1007.70 1007.12 1006.52 1005.91 1005.31 1004.74 1004.23 1003.78 1003.43 1003.19
Thickness
5761 5760 5759 5759 5759 5759 5758 5757 5757 5756 5756 5756 5756 5756 5755 5755 5754 5754 5754 5754 5753 5752 5751 5750 5749 5747 5746 5744 5743 5741 5739 5737 5736 5735 5733 5732 5731 5730 5729 5727 5726 5725 5724
5761 5760 5760 5759 5759 5759 5758 5758 5757 5756 5756 5755 5755 5755 5755 5755 5754 5754 5754 5754 5753 5752 5751 5750 5749 5748 5746 5745 5743 5741 5740 5738 5736 5735 5733 5732 5731 5730 5729 5728 5726 5725 5724
5762 5761 5759 5759 5759 5759 5758 5757 5757 5756 5755 5755 5754 5754 5754 5754 5754 5754 5753 5753 5753 5752 5751 5750 5749 5748 5747 5745 5744 5742 5741 5739 5737 5735 5734 5732 5731 5730 5729 5728 5727 5725 5724
5763 5761 5759 5759 5759 5758 5757 5756 5755 5754 5753 5753 5753 5753 5753 5753 5753 5753 5753 5752 5752 5751 5750 5750 5749 5748 5747 5746 5745 5743 5741 5739 5738 5736 5734 5733 5731 5730 5729 5728 5727 5725 5724
5763 5761 5760 5759 5759 5757 5756 5756 5754 5753 5752 5751 5751 5752 5752 5752 5752 5752 5752 5752 5751 5750 5750 5749 5749 5748 5747 5746 5745 5743 5741 5740 5738 5736 5735 5733 5732 5730 5729 5728 5726 5725 5723
5763 5762 5760 5759 5758 5756 5755 5754 5753 5752 5751 5750 5751 5750 5750 5750 5750 5750 5750 5750 5750 5749 5749 5748 5748 5747 5746 5745 5745 5744 5742 5740 5738 5736 5735 5734 5732 5731 5729 5728 5726 5724 5723
5763 5762 5760 5758 5757 5755 5754 5753 5752 5749 5748 5748 5746 5744 5746 5748 5748 5748 5748 5748 5748 5748 5747 5746 5746 5745 5744 5744 5743 5742 5741 5740 5738 5737 5735 5733 5732 5730 5728 5727 5725 5724 5722
5763 5761 5759 5757 5756 5754 5753 5752 5750 5747 5746 5746 5742 5738 5736 5738 5743 5746 5745 5745 5745 5745 5745 5744 5743 5743 5742 5742 5741 5740 5739 5738 5736 5735 5734 5732 5731 5729 5728 5726 5724 5723 5721
5762 5761 5759 5757 5755 5753 5751 5750 5749 5746 5743 5743 5743 5738 5732 5729 5733 5738 5740 5742 5742 5742 5742 5742 5741 5740 5740 5739 5738 5737 5737 5736 5735 5733 5732 5730 5729 5728 5726 5725 5723 5721 5720
5761 5760 5758 5756 5754 5752 5750 5749 5748 5746 5744 5740 5740 5739 5737 5735 5730 5729 5734 5737 5738 5738 5738 5739 5738 5738 5737 5736 5735 5734 5734 5734 5733 5731 5730 5728 5727 5726 5724 5723 5722 5720 5718
5759 5758 5756 5754 5752 5750 5749 5748 5747 5745 5744 5741 5739 5737 5735 5733 5731 5727 5725 5729 5732 5734 5735 5735 5735 5735 5734 5733 5732 5731 5730 5730 5729 5729 5727 5726 5724 5723 5722 5721 5720 5718 5716
5757 5756 5755 5753 5751 5749 5747 5746 5745 5743 5742 5740 5739 5737 5734 5731 5729 5727 5724 5724 5725 5729 5731 5732 5732 5731 5731 5729 5729 5728 5727 5726 5726 5725 5724 5722 5721 5720 5719 5718 5717 5715 5714
5754 5753 5752 5751 5748 5747 5746 5744 5742 5740 5739 5737 5736 5735 5734 5732 5731 5728 5724 5722 5722 5724 5726 5728 5728 5728 5727 5726 5725 5725 5724 5723 5722 5721 5720 5718 5717 5716 5715 5714 5713 5712 5711
5754 5752 5750 5749 5747 5745 5744 5742 5739 5738 5736 5735 5734 5733 5732 5731 5729 5727 5724 5720 5717 5717 5719 5721 5723 5723 5723 5722 5722 5721 5720 5719 5718 5717 5716 5715 5713 5712 5710 5709 5709 5708 5706
5753 5751 5749 5747 5744 5743 5741 5739 5737 5735 5734 5732 5731 5730 5729 5728 5727 5726 5724 5722 5717 5712 5713 5716 5717 5719 5718 5718 5717 5716 5716 5715 5714 5713 5713 5711 5709 5708 5706 5705 5704 5703 5702
5751 5749 5747 5744 5742 5740 5738 5736 5734 5732 5730 5729 5728 5726 5725 5724 5723 5722 5721 5719 5717 5714 5710 5712 5712 5713 5713 5713 5712 5711 5710 5710 5710 5709 5708 5707 5705 5704 5702 5700 5698 5697 5697
5749 5747 5744 5741 5739 5736 5734 5732 5730 5729 5727 5725 5724 5723 5722 5721 5719 5718 5717 5715 5713 5711 5707 5707 5707 5707 5706 5706 5705 5705 5705 5705 5704 5704 5703 5702 5701 5700 5698 5696 5694 5693 5692
5746 5744 5741 5738 5736 5733 5731 5729 5727 5725 5723 5721 5720 5719 5718 5717 5715 5714 5713 5711 5709 5707 5704 5701 5701 5700 5699 5699 5699 5699 5699 5699 5699 5698 5698 5697 5696 5694 5692 5691 5689 5688 5687
5741 5740 5737 5735 5733 5731 5729 5727 5724 5722 5720 5719 5717 5715 5714 5712 5710 5709 5708 5706 5704 5702 5699 5696 5694 5693 5692 5692 5691 5691 5692 5692 5692 5692 5692 5691 5690 5689 5687 5685 5684 5682 5681
5737 5735 5733 5731 5729 5728 5726 5724 5721 5719 5717 5715 5714 5712 5710 5708 5706 5704 5702 5700 5698 5695 5692 5690 5688 5686 5684 5684 5683 5683 5683 5684 5684 5685 5684 5684 5683 5682 5681 5680 5678 5677 5675
5734 5731 5729 5726 5724 5723 5721 5719 5717 5715 5712 5710 5708 5706 5705 5704 5702 5700 5698 5694 5692 5688 5685 5682 5680 5678 5677 5676 5675 5675 5674 5674 5675 5675 5675 5675 5675 5675 5674 5674 5672 5671 5670
5730 5727 5723 5721 5719 5718 5716 5715 5712 5709 5707 5704 5701 5700 5698 5697 5695 5693 5692 5689 5687 5682 5678 5675 5673 5671 5670 5669 5668 5667 5665 5665 5665 5666 5666 5666 5667 5667 5667 5666 5666 5665 5663
5725 5721 5718 5716 5713 5712 5711 5709 5706 5704 5701 5698 5695 5693 5692 5690 5687 5685 5683 5681 5679 5677 5675 5671 5668 5666 5665 5664 5661 5660 5658 5657 5657 5658 5657 5658 5659 5658 5659 5659 5658 5657 5656
5718 5715 5712 5711 5708 5707 5705 5703 5700 5697 5694 5692 5689 5686 5684 5682 5680 5677 5675 5672 5670 5669 5667 5665 5663 5661 5659 5657 5655 5653 5651 5650 5649 5649 5649 5649 5650 5650 5651 5650 5650 5649 5649
5712 5710 5708 5705 5702 5700 5698 5696 5693 5690 5687 5685 5682 5680 5677 5674 5672 5669 5667 5664 5662 5660 5659 5658 5655 5653 5651 5649 5647 5645 5643 5642 5641 5641 5640 5640 5641 5641 5641 5641 5640 5640 5640
5706 5703 5701 5699 5697 5695 5692 5689 5686 5683 5679 5677 5674 5672 5671 5668 5665 5662 5660 5657 5654 5653 5651 5649 5646 5644 5642 5641 5639 5638 5636 5634 5632 5632 5632 5631 5632 5631 5631 5631 5630 5630 5630